Weather History for KSPI - May, 2013

Change the Weather History Date:

Tuesday, May 21, 2013

  Actual Average Record
Temperature  
Mean Temperature 72 °F 65 °F  
Max Temperature 81 °F 76 °F 94 °F (1941)
Min Temperature 63 °F 54 °F 35 °F (2002)
Degree Days  
Heating Degree Days 0 3  
Month to date heating degree days 103  
Since 1 July heating degree days 5448  
Cooling Degree Days 7 3  
Month to date cooling degree days 76 43  
Year to date cooling degree days 90 63  
Growing Degree Days 21 (Base 50)    
Moisture  
Dew Point 64 °F    
Average Humidity 79    
Maximum Humidity 100    
Minimum Humidity 58    
Precipitation  
Precipitation T in 0.14 in 1.98 in (1898)
Month to date precipitation 4.94 2.82  
Year to date precipitation 19.06 12.59  
Snow  
Snow 0.00 in 0.00 in 0.00 in ()
Month to date snowfall 0.0 0.0  
Since 1 July snowfall 33.1 20.9  
Snow Depth 0.00 in    
Sea Level Pressure  
Sea Level Pressure 29.73 in    
Wind  
Wind Speed 12 mph (SSW)    
Max Wind Speed 22 mph    
Max Gust Speed 28 mph    
Visibility 9 miles    
Events Rain , Thunderstorm    
T = Trace of Precipitation, MM = Missing Value Source: NWS Daily Summary

Daily Weather History Graph

Daily Weather History Graph

Search for Another Location

Airport or City:

Trip Planner

Search our weather history database for the weather conditions in past years. The results will help you decide how hot, cold, wet, or windy it might be!

Date:

Astronomy

May. 21, 2013 Rise Set
Actual Time 5:38 AM CDT 8:12 PM CDT
Civil Twilight 5:07 AM CDT 8:43 PM CDT
Nautical Twilight 4:28 AM CDT 9:22 PM CDT
Astronomical Twilight 3:45 AM CDT 10:06 PM CDT
Moon 4:26 PM CDT (5/21) 3:06 AM CDT (5/21)
Length of Visible Light 15h 36m
Length of Day
14h 33m
Waxing Gibbous, 84% of the Moon is Illuminated
May 21
Waxing Gibbous
May 24
Full
May 31
Last Quarter
Jun 8
New
Jun 16
First Quarter

Hourly Weather History & Observations

Time (CDT) Temp. Heat Index Dew Point Humidity Pressure Visibility Wind Dir Wind Speed Gust Speed Precip Events Conditions
12:23 AM 62.6 °F - 62.6 °F 100% 29.79 in 5.0 mi SSE 13.8 mph - 0.17 in Rain Rain
12:37 AM 62.6 °F - 62.6 °F 100% 29.75 in 7.0 mi SSE 25.3 mph 32.2 mph 0.21 in Rain , Thunderstorm Rain
12:52 AM 63.0 °F - 63.0 °F 100% 29.72 in 3.0 mi South 16.1 mph - 0.23 in Rain Light Rain
1:52 AM 64.0 °F - 64.0 °F 100% 29.72 in 10.0 mi South 12.7 mph - 0.00 in   Clear
2:52 AM 64.0 °F - 64.0 °F 100% 29.73 in 10.0 mi South 11.5 mph - N/A   Scattered Clouds
3:52 AM 66.0 °F - 64.0 °F 93% 29.75 in 10.0 mi South 18.4 mph 25.3 mph N/A   Overcast
4:52 AM 64.9 °F - 62.1 °F 90% 29.72 in 10.0 mi South 12.7 mph - N/A   Scattered Clouds
5:52 AM 64.9 °F - 61.0 °F 87% 29.72 in 10.0 mi South 13.8 mph - N/A   Partly Cloudy
6:52 AM 66.0 °F - 61.0 °F 84% 29.73 in 10.0 mi SSW 11.5 mph 19.6 mph N/A   Clear
7:52 AM 68.0 °F - 62.1 °F 81% 29.75 in 10.0 mi SSW 15.0 mph - N/A   Scattered Clouds
8:52 AM 69.1 °F - 62.1 °F 78% 29.76 in 10.0 mi SSW 16.1 mph - N/A   Clear
9:52 AM 72.0 °F - 64.0 °F 76% 29.75 in 10.0 mi SSW 15.0 mph - N/A   Clear
10:52 AM 75.0 °F - 66.0 °F 73% 29.76 in 10.0 mi SSW 16.1 mph 23.0 mph N/A   Partly Cloudy
11:52 AM 75.0 °F - 66.0 °F 73% 29.75 in 10.0 mi SW 11.5 mph - N/A   Clear
12:30 PM 77.0 °F - 66.2 °F 69% 29.76 in 10.0 mi SSW 11.5 mph 20.7 mph N/A   Mostly Cloudy
12:52 PM 77.0 °F - 66.9 °F 71% 29.75 in 10.0 mi SW 11.5 mph - N/A   Mostly Cloudy
1:52 PM 78.1 °F - 66.9 °F 68% 29.74 in 10.0 mi SSW 13.8 mph 21.9 mph N/A   Scattered Clouds
2:52 PM 80.1 °F 82.1 °F 66.0 °F 62% 29.73 in 10.0 mi SSW 16.1 mph 26.5 mph N/A   Partly Cloudy
3:52 PM 80.1 °F 82.1 °F 66.0 °F 62% 29.72 in 10.0 mi SSW 15.0 mph 21.9 mph N/A   Scattered Clouds
4:52 PM 79.0 °F - 64.0 °F 60% 29.70 in 10.0 mi SSW 15.0 mph 23.0 mph N/A   Partly Cloudy
5:52 PM 78.1 °F - 63.0 °F 60% 29.67 in 10.0 mi SSW 8.1 mph - N/A   Clear
6:52 PM 78.1 °F - 63.0 °F 60% 29.69 in 10.0 mi SSW 12.7 mph - N/A   Scattered Clouds
7:52 PM 73.9 °F - 62.1 °F 66% 29.70 in 10.0 mi SSW 10.4 mph - N/A   Clear
8:52 PM 72.0 °F - 63.0 °F 73% 29.71 in 10.0 mi SW 4.6 mph - N/A   Clear
9:52 PM 70.0 °F - 63.0 °F 78% 29.69 in 10.0 mi South 6.9 mph - N/A   Scattered Clouds
10:52 PM 69.1 °F - 63.0 °F 81% 29.69 in 10.0 mi South 6.9 mph - N/A   Overcast
11:52 PM 69.1 °F - 64.0 °F 84% 29.70 in 10.0 mi South 9.2 mph - N/A   Overcast